CAPE
1 2 0 5 16 6 2 21 9 50 143 20 53 121 138 117 107 59 22 10 90 328 179 74 0 19 46 0 0 0 0 0 0 0 0 0 0 0 0 0 0 0 0 0 0
0 0 2 12 2 5 7 13 29 0 21 7 65 127 147 105 6 8 78 115 258 241 107 22 0 0 12 0 0 0 0 0 0 0 0 0 0 0 0 0 0 0 0 0 0
0 0 7 6 0 0 1 3 37 7 2 36 64 74 116 3 0 3 173 164 229 146 51 30 0 9 0 0 0 0 0 0 0 0 0 0 0 0 0 0 0 0 0 0 0
0 0 0 0 0 0 0 0 9 41 17 44 63 27 0 0 0 0 188 232 317 27 34 12 46 2 0 0 0 0 0 0 0 0 0 0 0 0 0 0 0 0 0 0 0
0 0 0 0 0 0 0 0 3 20 55 65 48 19 0 0 0 0 4 81 47 20 4 0 21 0 0 0 0 0 0 0 0 0 0 0 0 0 0 0 0 0 0 0 0
0 0 0 0 0 0 0 0 0 0 13 57 19 0 0 0 0 0 0 62 43 3 0 0 0 0 0 0 0 0 0 0 0 0 0 0 0 0 0 0 0 0 0 0 0
0 0 0 0 0 0 0 0 0 0 0 16 0 0 0 0 0 0 0 11 0 1 0 0 0 0 0 0 0 0 0 0 0 0 0 0 0 0 0 0 0 0 0 0 0
0 0 0 0 0 0 0 0 0 0 11 6 10 0 0 0 0 0 0 0 0 0 0 0 0 0 0 0 0 0 0 0 0 0 0 0 0 0 0 0 0 0 0 0 0
0 0 0 0 0 0 0 0 0 0 11 25 0 0 0 0 0 0 0 0 0 0 0 0 0 0 0 0 0 0 0 0 0 0 0 0 0 0 0 0 0 0 0 0 0
0 0 0 0 0 0 0 0 0 0 0 0 0 0 0 1 0 0 0 0 0 0 0 0 0 0 0 0 0 0 0 0 0 0 0 0 0 0 0 0 0 0 0 0 0
0 0 0 0 0 0 0 0 0 0 0 0 0 0 0 0 0 0 0 0 5 7 0 0 0 0 0 0 0 0 0 0 0 0 0 0 0 0 0 0 0 0 0 0 0
0 0 0 0 0 0 0 0 0 0 0 0 0 0 0 0 0 0 0 0 0 0 0 0 0 0 0 0 0 0 0 0 0 0 0 0 0 0 0 0 0 0 0 0 0
0 0 0 0 0 0 0 0 0 0 0 0 0 0 0 0 0 0 0 0 0 0 0 0 0 0 0 0 0 0 0 0 0 0 0 0 0 0 0 0 0 0 0 0 0
0 0 0 0 0 0 0 0 0 0 0 0 0 0 0 0 0 0 0 0 0 0 0 0 0 0 0 0 0 0 0 0 0 0 0 0 0 0 0 0 0 0 0 0 0
0 0 0 0 0 0 0 0 0 0 0 0 0 0 0 0 0 0 0 0 0 0 0 0 0 0 0 0 0 0 0 0 0 0 0 0 0 0 0 0 0 0 0 0 0
0 0 0 0 0 0 0 0 0 0 0 0 0 0 0 0 0 0 0 0 0 0 0 0 0 0 0 0 0 0 0 0 0 0 0 0 0 0 0 0 0 0 0 0 0
0 0 0 0 0 0 0 0 0 0 0 0 0 0 0 0 0 0 0 0 0 0 0 0 0 0 0 0 0 0 0 0 0 0 0 0 0 0 0 0 0 0 0 0 0
0 0 0 0 0 0 0 0 0 0 0 0 0 0 0 0 0 0 0 0 0 0 0 0 0 0 0 0 0 0 0 0 0 0 0 0 0 0 0 0 0 0 0 0 0
0 0 0 0 0 0 0 0 0 0 0 0 0 0 0 0 0 0 0 0 0 0 0 0 0 0 0 0 0 0 0 0 0 0 0 0 0 0 0 0 0 0 0 0 0
0 0 0 0 0 0 0 0 0 0 0 0 0 0 0 0 0 0 0 0 0 0 0 0 0 0 0 0 0 0 0 0 0 0 0 0 0 0 0 0 0 0 0 0 0
0 0 0 0 0 0 0 0 0 0 0 0 0 0 0 0 0 0 0 0 0 0 0 0 0 0 0 0 0 0 0 0 0 0 0 0 0 0 0 0 0 0 0 0 0
0 0 0 0 0 0 0 0 0 0 0 0 0 0 0 0 0 0 0 0 0 0 0 0 0 0 0 0 0 0 0 0 0 0 0 0 0 0 0 0 0 0 0 0 0
0 0 0 0 0 0 0 0 0 0 0 0 0 0 0 0 0 0 0 0 0 0 0 0 0 0 0 0 0 0 0 0 0 0 0 0 0 0 0 0 0 0 0 0 0
0 0 0 0 0 0 0 0 0 0 0 0 0 0 0 0 0 0 0 0 0 0 0 0 0 0 0 0 0 0 0 0 0 0 0 0 0 0 0 0 0 0 0 0 0
0 0 0 0 0 0 0 0 0 0 0 0 0 0 0 0 0 0 0 0 0 0 0 0 0 0 0 0 0 0 0 0 0 0 0 0 0 0 0 0 0 0 0 0 0
0 0 0 0 0 0 0 0 0 0 0 0 0 0 0 0 0 0 0 0 0 0 0 0 0 0 0 0 0 0 0 0 0 0 0 0 0 0 0 0 0 0 0 0 0
0 0 0 0 0 0 0 0 0 0 0 0 0 0 0 0 0 0 0 0 0 0 0 0 0 0 0 0 0 0 0 0 0 0 0 0 0 0 0 0 0 0 0 0 0
CIN
0 0 0 0 0 -1 0 -2 -8 -33 -5 -11 -10 -6 -3 -1 -8 -36 -61 -15 -19 -2 -19 -12 0 -3 -1 0 0 0 0 0 0 0 0 0 0 0 0 0 0 0 0 0 0
0 0 -4 0 -1 -1 -2 -7 -10 0 -8 -1 -4 0 -2 -9 -69 -69 -6 -13 -10 -2 -28 -10 0 0 -1 0 0 0 0 0 0 0 0 0 0 0 0 0 0 0 0 0 0
0 0 -16 -7 0 0 -1 -5 -4 -6 -2 -3 -3 -4 -9 -8 0 -8 -4 -1 -2 -23 -8 -28 0 -3 0 0 0 0 0 0 0 0 0 0 0 0 0 0 0 0 0 0 0
0 0 0 0 0 0 0 0 -11 -3 -19 -14 -7 -6 0 0 0 0 -3 0 -4 -65 -64 -24 -9 -5 0 0 0 0 0 0 0 0 0 0 0 0 0 0 0 0 0 0 0
0 0 0 0 0 0 0 0 -21 -7 -10 -19 -18 -34 0 0 0 0 -108 -43 -59 -23 -19 0 -6 0 0 0 0 0 0 0 0 0 0 0 0 0 0 0 0 0 0 0 0
0 0 0 0 0 0 0 0 0 -9 -25 -26 -42 0 0 0 0 0 0 -102 -135 -108 0 0 0 0 0 0 0 0 0 0 0 0 0 0 0 0 0 0 0 0 0 0 0
0 0 0 0 0 0 0 0 0 0 0 -31 0 0 0 0 0 0 0 -174 0 -39 0 0 0 0 0 0 0 0 0 0 0 0 0 0 0 0 0 0 0 0 0 0 0
0 0 0 0 0 0 0 0 0 0 -64 -46 -24 0 0 0 0 0 0 0 0 0 0 0 0 0 0 0 0 0 0 0 0 0 0 0 0 0 0 0 0 0 0 0 0
0 0 0 0 0 0 0 0 0 0 -78 -30 0 0 0 -11 0 0 0 0 0 0 0 0 0 0 0 0 0 0 0 0 0 0 0 0 0 0 0 0 0 0 0 0 0
0 0 0 0 0 0 0 0 0 0 0 0 0 0 0 -1 0 0 -1 0 0 -10 0 0 0 0 0 0 0 0 0 0 0 0 0 0 0 0 0 0 0 0 0 0 0
0 0 0 0 0 0 0 0 0 0 0 0 0 0 0 0 0 0 0 0 -12 -15 0 0 0 0 0 0 0 0 0 0 0 0 0 0 0 0 0 0 0 0 0 0 0
0 0 0 0 0 0 0 0 0 0 0 0 0 0 0 0 0 -1 0 0 0 0 0 0 0 0 0 0 0 0 0 0 0 0 0 0 0 0 0 0 0 0 0 0 0
0 0 0 0 0 0 0 0 0 0 0 0 0 0 0 0 0 0 0 0 0 0 0 0 0 0 0 0 0 0 0 0 0 0 0 0 0 0 0 0 0 0 0 0 0
0 0 0 0 0 0 0 0 0 0 0 0 0 0 0 0 0 0 0 0 0 0 0 0 0 0 0 0 0 0 0 0 0 0 0 0 0 0 0 0 0 0 0 0 0
0 0 0 0 0 0 0 0 0 0 0 0 0 0 0 0 0 0 0 0 0 0 0 0 0 0 0 0 0 0 0 0 0 0 0 0 0 0 0 0 0 0 0 0 0
0 0 0 0 0 0 0 0 0 0 0 0 0 0 0 0 0 0 0 0 0 0 0 0 0 0 0 0 0 0 0 0 0 0 0 0 0 0 0 0 0 0 0 0 0
0 0 0 0 0 0 0 0 0 0 0 0 0 0 0 0 0 0 0 0 0 0 0 0 0 0 0 0 0 0 0 0 0 0 0 0 0 0 0 0 0 0 0 0 0
0 0 0 0 0 0 0 0 0 0 0 0 0 0 0 0 0 0 0 0 0 0 0 0 0 0 0 0 0 0 0 0 0 0 0 0 0 0 0 0 0 0 0 0 0
0 0 0 0 0 0 0 0 0 0 0 0 0 0 0 0 0 0 0 0 0 0 0 0 0 0 0 0 0 0 0 0 0 0 0 0 0 0 0 0 0 0 0 0 0
0 0 0 0 0 0 0 0 0 0 0 0 0 0 0 0 0 0 0 0 0 0 0 0 0 0 0 0 0 0 0 0 0 0 0 0 0 0 0 0 0 0 0 0 0
0 0 0 0 0 0 0 0 0 0 0 0 0 0 0 0 0 0 0 0 0 0 0 0 0 0 0 0 0 0 0 0 0 0 0 0 0 0 0 0 0 0 0 0 0
0 0 0 0 0 0 0 0 0 0 0 0 0 0 0 0 0 0 0 0 0 0 0 0 0 0 0 0 0 0 0 0 0 0 0 0 0 0 0 0 0 0 0 0 0
0 0 0 0 0 0 0 0 0 0 0 0 0 0 0 0 0 0 0 0 0 0 0 0 0 0 0 0 0 0 0 0 0 0 0 0 0 0 0 0 0 0 0 0 0
0 0 0 0 0 0 0 0 0 0 0 0 0 0 0 0 0 0 0 0 0 0 0 0 0 0 0 0 0 0 0 0 0 0 0 0 0 0 0 0 0 0 0 0 0
0 0 0 0 0 0 0 0 0 0 0 0 0 0 0 0 0 0 0 0 0 0 0 0 0 0 0 0 0 0 0 0 0 0 0 0 0 0 0 0 0 0 0 0 0
0 0 0 0 0 0 0 0 0 0 0 0 0 0 0 0 0 0 0 0 0 0 0 0 0 0 0 0 0 0 0 0 0 0 0 0 0 0 0 0 0 0 0 0 0
0 0 0 0 0 0 0 0 0 0 0 0 0 0 0 0 0 0 0 0 0 0 0 0 0 0 0 0 0 0 0 0 0 0 0 0 0 0 0 0 0 0 0 0 0
Wind_Speed
27 27 30 31 33 31 30 29 29 31 16 13 15 8 4 5 9 13 20 20 19 20 19 21 24 26 28 31 28 26 35 38 33 30 24 18 15 16 15 13 17 20 16 15 8
26 28 32 33 33 36 37 33 30 32 29 22 24 24 7 2 5 13 17 20 20 17 22 25 31 29 32 33 30 32 36 35 27 26 23 18 15 13 15 15 17 16 13 7 7
26 27 31 32 33 38 39 29 29 30 30 25 28 20 16 0 9 15 15 18 18 17 18 21 25 31 33 32 30 29 34 28 27 27 21 17 16 16 11 17 18 13 5 9 7
25 25 27 29 29 31 30 29 23 26 30 26 25 20 16 15 15 14 15 15 19 18 18 18 28 33 35 35 29 30 25 26 26 23 21 19 15 16 17 15 18 6 6 8 6
23 22 21 23 24 23 20 21 17 21 31 30 25 9 12 12 15 16 17 18 20 21 14 20 30 30 36 32 28 27 24 20 22 20 19 18 17 17 17 16 8 7 8 7 7
21 22 20 20 22 19 18 12 15 17 19 14 12 11 15 15 14 18 19 20 21 21 19 23 26 25 31 30 30 25 20 19 18 19 19 19 18 18 17 13 8 8 10 11 10
17 20 19 19 20 18 16 15 15 21 22 19 9 10 12 13 14 15 17 19 19 26 16 20 21 23 28 28 24 24 23 20 18 20 20 20 22 21 16 14 10 13 13 13 13
15 15 17 18 18 17 15 15 18 19 18 16 6 10 18 11 12 11 10 13 15 21 22 22 22 23 26 24 24 26 24 28 23 21 21 21 27 22 17 14 14 14 15 15 14
14 13 15 14 17 16 12 13 17 13 13 15 23 21 18 9 18 18 10 13 18 24 24 23 21 24 26 29 29 26 33 30 26 21 22 22 24 23 19 18 18 18 18 17 17
12 13 14 15 15 16 15 19 21 21 17 18 23 23 16 21 22 18 22 21 18 21 22 24 22 29 30 32 38 34 30 28 27 25 23 25 24 23 22 21 22 22 22 23 21
12 12 13 15 17 19 21 20 24 28 28 33 27 27 21 19 13 14 24 40 30 24 23 20 25 34 34 28 27 26 26 26 24 22 24 27 27 23 23 24 25 25 25 25 24
12 11 12 14 17 21 24 29 26 23 28 26 27 26 19 15 4 6 26 23 22 22 22 13 24 25 28 27 26 26 23 24 21 20 21 25 30 28 23 26 26 26 26 25 23
13 13 10 11 14 19 23 22 20 20 26 23 20 21 9 15 7 9 18 18 10 4 7 13 19 18 22 27 28 26 27 24 23 20 19 22 29 29 25 26 28 28 28 26 23
17 14 11 10 14 14 16 15 15 18 25 20 18 16 10 12 11 7 14 17 9 6 9 11 15 15 18 23 25 27 22 22 20 22 26 21 28 26 25 25 24 25 26 25 22
19 17 16 17 16 16 15 13 14 17 27 13 16 12 12 18 16 6 7 5 13 7 16 16 13 14 17 21 20 22 17 18 19 21 22 23 26 25 22 24 23 22 20 19 18
19 19 18 17 16 15 13 15 17 24 28 18 17 17 22 17 17 12 13 9 14 6 4 12 12 12 15 13 14 15 16 16 18 21 28 25 25 26 23 23 22 19 18 17 17
16 19 20 18 18 15 15 16 24 30 20 20 20 19 21 20 20 17 14 10 18 17 16 14 13 14 13 14 13 16 19 23 26 27 28 24 27 29 23 21 20 18 17 16 15
14 18 20 20 18 18 18 21 29 24 23 20 19 19 22 18 19 18 20 19 11 17 17 17 18 16 15 15 17 17 19 22 27 27 27 24 29 27 21 19 19 17 16 16 16
16 19 20 18 18 18 19 27 25 23 21 21 20 21 19 19 19 19 20 18 16 16 21 17 16 16 14 15 16 19 22 18 19 21 27 27 28 28 21 18 18 17 18 17 17
19 18 21 17 17 19 23 25 22 20 18 19 22 20 21 18 19 19 18 18 18 15 16 20 13 17 16 16 15 17 13 21 21 26 29 27 29 29 21 18 19 17 18 18 18
20 17 21 18 18 22 25 23 21 17 17 19 20 20 20 19 18 18 18 18 17 17 16 19 19 23 19 19 19 16 18 18 18 22 27 30 29 20 16 15 16 16 17 17 18
18 14 20 18 19 21 22 21 19 19 17 18 18 18 19 18 19 19 19 18 17 17 18 17 20 23 25 21 22 21 19 18 24 26 24 25 31 22 20 17 17 17 19 19 20
15 14 18 19 19 21 19 20 19 18 18 17 18 17 17 17 18 18 18 17 15 17 18 19 19 22 22 24 25 27 24 22 21 22 26 27 27 21 19 18 19 19 19 20 20
16 15 16 21 19 19 20 19 19 17 18 17 17 17 17 17 16 17 17 16 15 16 16 16 19 21 21 21 19 23 24 23 21 25 26 27 28 24 20 17 18 20 20 22 24
19 16 17 16 17 16 16 17 18 17 16 16 17 16 16 16 15 15 14 13 13 14 14 15 14 14 17 21 25 29 30 22 18 23 26 30 27 25 22 20 24 23 21 23 22
19 18 17 17 16 16 15 14 14 16 16 15 15 15 14 14 13 14 13 12 12 12 11 11 9 9 7 9 3 17 23 23 23 24 31 37 38 32 32 27 27 22 23 23 23
18 17 16 16 16 17 17 17 15 15 15 15 14 14 12 11 12 12 12 11 10 10 10 12 14 20 20 24 28 16 14 11 20 19 18 24 34 26 25 24 22 21 20 20 23
Wind_Direction
35 34 30 28 24 27 27 26 28 23 37 85 142 122 145 247 250 249 240 248 247 246 237 235 227 223 219 218 226 233 226 226 229 228 236 237 238 246 254 248 256 253 255 250 177
38 36 30 31 35 33 34 44 50 46 57 112 92 109 93 128 235 245 259 252 244 244 234 227 219 215 216 217 224 225 225 226 234 232 233 232 235 239 247 245 252 251 255 185 177
41 40 34 37 38 32 36 57 60 62 41 58 92 85 90 121 250 258 273 255 239 239 234 226 219 213 214 216 222 225 224 231 232 232 230 225 234 243 240 248 246 244 182 178 184
44 45 42 42 45 41 50 54 66 73 78 64 69 62 206 235 253 264 272 257 234 233 238 225 210 209 211 212 220 221 230 231 230 230 228 226 233 237 247 253 246 219 185 208 206
47 47 49 49 48 49 56 61 70 85 69 83 96 250 235 273 277 254 247 232 226 223 224 222 206 211 206 213 217 218 224 231 228 226 228 229 234 239 247 251 233 210 221 223 236
50 50 52 51 48 53 61 70 77 89 106 150 176 210 174 204 232 229 228 221 223 226 217 212 211 217 209 213 217 218 217 224 228 226 230 227 235 241 248 243 226 224 236 244 254
52 53 55 56 54 59 66 76 89 88 90 100 241 234 3 192 224 231 225 224 224 211 224 219 219 215 210 210 212 214 215 221 230 231 230 233 235 241 244 237 234 239 247 255 264
53 56 56 58 55 60 71 82 91 95 101 115 190 180 160 190 207 206 256 237 237 211 216 219 226 218 213 209 213 214 219 218 230 232 234 233 235 244 241 238 242 247 253 261 271
56 57 59 61 61 64 74 86 88 101 111 114 101 128 147 217 154 171 213 208 214 209 214 225 221 213 207 204 208 217 213 220 225 237 236 236 242 244 242 243 248 254 260 267 276
60 62 65 69 71 73 86 91 86 88 111 122 109 108 150 141 153 170 165 201 209 191 209 215 215 205 207 209 208 212 214 222 226 234 238 236 245 248 244 248 253 260 265 270 279
63 70 73 75 79 79 80 89 86 86 89 87 98 110 131 150 159 167 149 123 162 194 208 209 199 201 206 214 215 214 217 222 232 240 240 240 246 254 247 252 256 262 268 274 281
65 77 85 88 87 84 82 79 85 93 84 88 94 105 133 158 72 152 147 153 174 187 192 200 201 214 215 216 217 217 216 226 235 242 244 246 246 253 254 257 263 268 274 280 287
68 71 96 104 99 89 82 84 93 97 89 91 101 105 155 150 170 178 180 170 188 156 184 198 212 214 214 215 217 222 225 228 235 241 250 255 252 253 261 264 269 274 278 285 291
64 68 89 114 99 100 87 95 107 103 87 86 98 114 146 167 172 223 194 187 213 196 203 211 215 211 210 211 220 220 236 235 237 240 243 258 251 259 262 269 278 283 284 286 292
60 67 79 89 97 94 101 104 112 108 81 97 102 132 130 137 158 221 228 274 195 235 208 207 212 214 210 220 228 225 235 239 242 246 250 258 258 263 272 271 279 290 296 301 305
62 65 80 86 91 102 111 106 103 83 82 101 104 108 113 124 134 164 169 203 202 211 212 208 222 227 221 228 232 229 236 245 251 252 250 258 260 266 272 277 283 293 302 308 315
66 67 74 84 84 99 111 105 77 74 97 99 105 108 116 118 120 138 157 194 184 197 202 216 226 229 233 229 242 242 237 240 244 248 252 264 264 265 282 286 291 296 305 313 323
74 70 72 77 86 93 98 84 70 84 92 105 110 112 108 121 121 129 137 151 195 189 200 211 219 233 244 242 240 243 245 245 245 250 258 268 266 273 289 290 298 305 311 317 321
66 65 66 74 81 89 85 65 77 89 98 98 104 103 113 115 122 126 130 149 167 185 175 209 228 239 246 249 252 247 248 262 262 268 265 268 274 281 289 295 303 306 310 313 317
53 58 56 73 78 79 68 66 84 100 103 100 91 100 102 117 123 124 136 146 164 188 199 194 234 233 250 252 263 261 262 257 264 261 264 271 275 276 290 296 305 310 311 311 312
45 60 50 66 73 66 55 69 84 105 107 98 97 99 102 107 117 127 134 148 166 183 196 195 195 205 231 250 254 263 266 272 277 274 272 274 280 303 305 306 308 312 313 317 320
50 69 48 60 67 69 69 75 88 85 100 99 103 107 103 107 109 113 126 142 163 169 190 220 203 181 211 242 247 260 273 275 272 274 282 286 284 303 304 304 306 309 310 316 320
58 69 54 62 67 68 79 78 82 80 80 83 86 95 107 109 105 115 126 146 181 176 174 203 224 207 222 238 250 253 266 274 280 285 281 283 289 304 306 305 304 306 314 318 322
48 54 59 56 67 74 74 75 76 85 84 87 83 85 85 86 103 105 117 133 166 160 194 214 191 194 193 250 269 266 272 275 281 282 285 284 291 300 301 305 312 311 313 317 317
31 42 48 50 57 69 76 76 73 74 79 85 81 83 77 65 70 79 96 110 125 154 156 145 146 160 189 210 244 256 264 288 286 284 286 290 292 297 300 298 299 307 312 315 318
15 22 29 31 39 48 54 66 68 68 73 78 76 74 79 78 76 57 64 64 62 69 73 77 88 59 147 20 57 212 221 218 217 219 228 240 244 294 296 300 298 303 308 314 318
6 13 18 19 20 19 23 28 40 45 49 52 61 63 70 68 66 59 52 48 46 38 34 21 6 339 326 317 308 313 326 312 304 301 296 271 297 307 308 305 300 300 307 313 315